星链-34874 (STARLINK-34874)
导读
STARLINK-34874是美国太空探索技术公司星链星座的卫星,于2025年8月27日由美国发射升空,属于星链星座组网卫星,承担卫星互联网服务任务。星链星座通过大规模低轨卫星部署,为全球用户提供高速宽带接入,服务覆盖偏远地区、海上与航空场景,该卫星是星座扩容的重要组成部分,进一步完善星座覆盖与服务能力。
Basic Information
目录编号:
65335
目录名称:
STARLINK-34874
国际标识:
2025-189N
轨道中心:
EARTH
卫星名称:
星链-34874
卫星全名:
星链-34874 (STARLINK-34874)
卫星状态:
在轨 (已飞行382 天)
发射日期:
2025-08-27 UTC
国别 :
美国
(US)
星等 :
--
This satellite is enrolled in the Space Conjunction Data Service (SCDS) and the current flight risk assessment level is: High Risk
Orbit Information
| 数据来源 | 国际轨道数据 |
| 星历时间: | 2026-09-12T01:11:56+0800 1天前 查看轨道信息 |
| 半长轴: | 6840.826km |
| 偏心率: | 0.0001419 |
| 轨道倾角: | 53.160° |
| 近地点辐角 | 135.455° |
| 升交点赤经 | 60.864° |
| 平近点角 | 224.656° |
| 近地点: | 461.718km |
| 远地点: | 463.66km |
| 周期: | 93.847分钟 |
| 每日圈数: | 15.344051 |
Detailed Information
固有亮度:
5
最大亮度:
2.5
卫星平台:
Starlink V1.0
覆盖范围:
全球
运营商:
太空探索技术公司
运营商所在国:
美国
制造商(研发单位):
太空探索技术公司
制造商所在国:
美国
使用方式:
暂无
Satellite Introduction
Starlink 计划是 SpaceX 推出的全球卫星互联网项目,通过发射低轨道卫星,为全球尤其是偏远地区提供高速、低延迟的互联网服务。自 2019 年起,Starlink 已部署数千颗卫星,旨在缩小全球数字鸿沟,推动互联网普及。该项目还为军事、航空等行业提供通信支持,带来广泛经济效益。
2D Orbit Map
3D Orbit Map
Orbit Altitude Analysis Chart
Orbit Inclination Analysis Chart
Orbit Comprehensive Analysis Chart
View Comprehensive ChartConjunction Data List
| Event ID | Objects | TCA | Miss Dist (km) | Collision Risk Probability | Collision Risk Index (CRI) | Action |
|---|---|---|---|---|---|---|
| CDM_260914-230405-382306-533521 |
STARLINK-4748
(53823)
STARLINK-34874
(65335) | 2026-09-14T 23:04:10+0000 |
0.375 km
远距离 | 2.493913E-4 高风险 | 0.83 | |
| CDM_260914-112005-382306-533522 |
STARLINK-4748
(53823)
STARLINK-34874
(65335) | 2026-09-14T 11:20:44+0000 |
0.698 km
远距离 | 5.303057E-5 中风险 | 0.69 | |
| CDM_260914-094605-382306-533522 |
STARLINK-4748
(53823)
STARLINK-34874
(65335) | 2026-09-14T 09:46:56+0000 |
1.508 km
极远距离 | 4.038616E-6 低风险 | 0.47 | |
| CDM_260914-213005-382306-533521 |
STARLINK-4748
(53823)
STARLINK-34874
(65335) | 2026-09-14T 21:30:23+0000 |
2.009 km
极远距离 | 1.795033E-6 低风险 | 0.4 | |
| CDM_260914-205805-418806-533521 |
STARLINK-5238
(54188)
STARLINK-34874
(65335) | 2026-09-14T 20:58:12+0000 |
2.935 km
极远距离 | 1.229585E-6 低风险 | 0.37 | |
| CDM_260915-003705-382306-533521 |
STARLINK-4748
(53823)
STARLINK-34874
(65335) | 2026-09-15T 00:37:58+0000 |
2.708 km
极远距离 | 1.011079E-6 低风险 | 0.35 | |
| CDM_260914-125405-382306-533521 |
STARLINK-4748
(53823)
STARLINK-34874
(65335) | 2026-09-14T 12:54:31+0000 |
2.723 km
极远距离 | 1.004251E-6 低风险 | 0.35 | |
| CDM_260914-024704-302406-533522 |
JILIN-01-06
(43024)
STARLINK-34874
(65335) | 2026-09-14T 02:47:42+0000 |
2.910 km
极远距离 | 9.800443E-7 极低风险 | 0.35 |
Miss Distance Evolution Trend with All Objects
Collision Probability Evolution Trend with All Objects

